Regional Weather Roundup
Issued by NWS

Home | Current Version | Previous Version | Text Only | Print | Product List | Glossary Off
Versions: 1 2 3 4 5 6 7 8 9 10 11 12 13 14 15 16 17 18 19 20 21 22 23 24 25 26 27 28 29 30 31 32 33 34 35 36 37 38 39 40 41 42 43 44 45 46 47 48 49 50

000
ASUS43 KDTX 010310
RWRMI
MICHIGAN HOURLY REGIONAL WEATHER ROUNDUP
NATIONAL WEATHER SERVICE DETROIT/PONTIAC MI
1100 PM EDT SUN AUG 31 2014

NOTE: "FAIR" INDICATES FEW OR NO CLOUDS BELOW 12,000 FEET WITH NO
SIGNIFICANT WEATHER AND/OR OBSTRUCTION TO VISIBILITY.

MIZ047>049-052>055-059>063-066>070-074>076-081>083-010400-
SOUTHEAST LOWER MICHIGAN

CITY           SKY/WX    TMP DP  RH WIND       PRES   REMARKS
ADRIAN         CLEAR     72  67  84 SW3       29.95F
ALMA           FOG       64  63  96 CALM      29.91F VSB 3/4
BAD AXE        CLOUDY    69  68  98 SE3       29.94F
DETROIT CITY   CLOUDY    78  67  68 S7        29.93F
DETROIT        PTCLDY    74  69  85 SE3       29.94S
FLINT          MOCLDY    72  65  78 SW3       29.92F
GROSSE ILE     PTCLDY    75  72  88 SE7       29.92F
HILLSDALE      CLEAR     67  67 100 CALM      29.95F FOG
HOWELL         MOCLDY    70  68  93 CALM      29.93F

CITY           SKY/WX    TMP DP  RH WIND       PRES   REMARKS
JACKSON        MOCLDY    70  68  93 CALM      29.94F
LAMBERTVILLE   CLEAR     73  68  83 S3        29.95S
LANSING        PTCLDY    69  67  93 CALM      29.93F
LAPEER         NOT AVBL
MASON          CLOUDY    69  66  92 CALM      29.93F
MONROE         CLEAR     72  70  94 CALM      29.92F
MT. CLEMENS    CLEAR     71  68  90 S3        29.92F
PONTIAC        MOCLDY    73  67  81 S3        29.93F
PORT HOPE        N/A     68  65  90 SE5       29.92F
PORT HURON     FOG       66  66 100 CALM      29.94S VSB 1/2
TRI CITIES     CLEAR     70  67  90 SE3       29.91F
YPSILANTI      PTCLDY    75  68  78 S7        29.94S
$$
MIZ043>046-050>051-056>058-064>065-071>073-077>080-010400-
SOUTHWEST LOWER MICHIGAN

CITY           SKY/WX    TMP DP  RH WIND       PRES   REMARKS
BATTLE CREEK   CLEAR     70  67  90 SE3       29.93F
BENTON HARBOR  CLEAR     69  65  86 SE5       29.88F
BIG RAPIDS     CLEAR     63  63 100 CALM      29.89F FOG
COLDWATER      PTCLDY    71  70  96 CALM      29.93F FOG
HOLLAND        CLEAR     70  66  87 CALM      29.89F
GRAND RAPIDS   CLEAR     68  67  96 CALM      29.90F
KALAMAZOO      CLEAR     70  66  87 CALM      29.92F
MARSHALL       FOG       67  67  99 CALM      29.93F VSB 1
MUSKEGON       CLEAR     70  66  87 SE8       29.87F
$$
MIZ016>042-010400-
NORTHERN LOWER MICHIGAN

CITY           SKY/WX    TMP DP  RH WIND       PRES   REMARKS
ALPENA         CLEAR     60  59  96 CALM      29.93S
BEAVER ISLAND  CLEAR     61  61  98 SE6       29.84F
BELLAIRE       CLEAR     61  59  94 CALM      29.86F FOG
CADILLAC       CLEAR     61  61 100 CALM      29.90F
CHARLEVOIX     CLEAR     64  64  99 SE6       29.88F
FRANKFORT      CLEAR     64  60  88 CALM      29.84F
GAYLORD        CLEAR     62  60  93 SE7       29.90F
GRAYLING       CLEAR     59  59 100 CALM      29.91F
HARBOR SPRINGS CLEAR     62  61  96 NE6       29.87F
HOUGHTON LAKE  CLEAR     63  62  97 E6        29.92F
MANISTEE       CLEAR     64  61  88 E5        29.86F
OSCODA         CLOUDY    64  64  99 E5        29.92F
PELLSTON       CLEAR     57  57 100 CALM      29.87F FOG
TRAVERSE CITY  CLEAR     63  60  90 CALM      29.84F
$$
MIZ007>008-015-010400-
EASTERN UPPER MICHIGAN

CITY           SKY/WX    TMP DP  RH WIND       PRES   REMARKS
KINROSS        CLEAR     57  57 100 SE6       29.87F
MACKINAC ISLAN CLEAR     61  61  99 SE8       29.86F
NEWBERRY       MOCLDY    58  58  99 S5        29.83F
S. S. MARIE    CLEAR     61  58  90 E3        29.86F
$$
MIZ004>006-011>014-085-010400-
CENTRAL UPPER MICHIGAN

CITY           SKY/WX    TMP DP  RH WIND       PRES   REMARKS
MANISTIQUE     CLEAR     61  60  97 SE7       29.82F
ESCANABA       MOCLDY    64  59  82 S7        29.82S
MENOMINEE      CLOUDY    64  63  94 S8        29.80F
SAWYER-GWINN   CLOUDY    62  60  94 S16       29.81S
$$
MIZ001>003-009>011-084-010400-
WESTERN UPPER MICHIGAN

CITY           SKY/WX    TMP DP  RH WIND       PRES   REMARKS
IRON MOUNTAIN  CLOUDY    63  62  97 SE12G18   29.78F FOG
HOUGHTON       PTCLDY    62  58  86 SE9       29.73S
COPPER HARBOR    N/A     63  58  83 SW14G22   29.71F
$$

ABBREVIATIONS USED IN REMARKS
   TC - TEMPERATURE IN CELSIUS
  WCI - WIND CHILL INDEX
   HX - HEAT INDEX
  VSB - VISIBILITY



USA.gov is the U.S. government's official web portal to all federal, state and local government web resources and services.